Weather Roundup
Issued by NWS Chicago, IL

Home | Current Version | Previous Version | Graphics & Text | Print | Product List | Glossary On
Versions: 1 2 3 4 5 6 7 8 9 10 11 12 13 14 15 16 17 18 19 20 21 22 23 24 25 26 27 28 29 30 31 32 33 34 35 36 37 38 39 40 41 42 43 44 45 46 47 48 49 50
000
NZUS59 KLOT 311700
HRRLOT

CHICAGO AREA WEATHER ROUNDUP
NATIONAL WEATHER SERVICE CHICAGO/ROMEOVILLE IL
1200 PM CDT FRI OCT 31 2014

NOTE: "FAIR" INDICATES FEW OR NO CLOUDS BELOW 12,000 FEET WITH NO
SIGNIFICANT WEATHER AND/OR OBSTRUCTIONS TO VISIBILITY.

* THESE STATIONS ARE NOT UNDER NWS QUALITY CONTROL. THEY ALSO MAY NOT
  REPORT WEATHER SUCH AS PRECIPITATION OR FOG.

ILZ005-006-012>014-019>023-311800-
NORTHEAST ILLINOIS

CITY           SKY/WX    TMP DP  RH WIND       PRES   REMARKS
OHARE          CLOUDY    37  24  59 NW29G41   30.15S
MIDWAY         CLOUDY    40  26  57 NW30G48   30.13S
AURORA         PTSUNNY   40  24  53 N32G41    30.20R
WAUKEGAN       CLOUDY    37  24  59 NW23G33   30.16R
DUPAGE AIRPORT CLOUDY    37  26  64 N20G38    30.18R
WHEELING       CLOUDY    38  24  57 N29G37    30.18R
NORTHERLY IS     N/A     37  28  70 NW25        N/A
$$

WIZ051-052-058>065-066-070>072-311800-
SOUTHEAST WISCONSIN

CITY           SKY/WX    TMP DP  RH WIND       PRES   REMARKS
MILWAUKEE      CLOUDY    37  23  56 N26G41    30.21R
KENOSHA*       CLOUDY    38  24  57 N29G40    30.19R
RACINE*        LGT RAIN  38  25  59 N28G45    30.20R
WAUKESHA       CLOUDY    34  21  60 N22G32    30.25R WCI  22
$$

INZ001>003-010>013-019-020-311800-
NORTHWEST INDIANA

CITY           SKY/WX    TMP DP  RH WIND       PRES   REMARKS
GARY*          LGT SNOW  37  32  81 NW29G48   30.11R
MICHIGAN CITY* NOT AVBL
RENSSELAER*    NOT AVBL
VALPARAISO     LGT SNOW  35  34  96 NW21G37   30.03S FOG     WCI  24
$$

LMZ740>746-311800-
SOUTHERN LAKE MICHIGAN

STATION/POSITION TIME  SKY/WX   TEMP WIND        PRES    VSBY
                                AIR  DIR/SP/G
                 (UTC)          (F)  (DEG/KT/KT) (MB)    (MI)
HARRISON CRIB    1600            38  330/ 40/ 50   N/A
BURNHAM HARBOR   1700            38  290/ 22/ 28   N/A
CALUMET HARBOR   1600            37  300/ 17/ 31 1018.3R
BURNS HARBOR     NOT AVBL
MICHIGAN CITY    1600            38  320/ 49/ 58   N/A
$$

ABBREVIATIONS USED IN REMARKS
   TC - TEMPERATURE IN CELSIUS
  WCI - WIND CHILL INDEX
   HX - HEAT INDEX
  VSB - VISIBILITY
$$



USA.gov is the U.S. government's official web portal to all federal, state and local government web resources and services.